tititudorancea.com
Station Historical Data
 
Daily Summary for February 17, 2019 Units:  Metric    English   Both
« Previous Day
Next Day »
Daily Weekly Monthly Yearly Custom
  Current: High: Low: Average:
Temperature: 25.8 °C -17.8 °C 11.8 °C 21 °C
Dew Point: 10.1 °C -17.8 °C 7.3 °C 10.1 °C
Humidity: 37 % Humidity % 25 % 57 %
Wind Speed: 0 km/h 0 km/h 0 km/h 5.5 km/h
Wind Gust: 0 km/h 0 km/h - -
Wind:Calm - - WSW
Pressure: 1006 hPa 0 hPa 1006 hPa -
Precipitation: 0 mm      
Historical Graphs
 
 
Ararat weather Find more about Weather in Ararat, AU


 



 


Tabular Data for February 17, 2019
Time Temperature Dew Point Pressure Wind Wind Speed Wind Gust Humidity Rainfall Rate (Hourly)
-17.8 °C -17.8 °C 0 hPa Calm     Humidity % 0 mm
00:04 16.7 °C 12.1 °C 1013.8 hPa South 8 km/h 5.3 km/h 74 % 0 mm
00:09 16.7 °C 12 °C 1013.8 hPa South 5.6 km/h 5.8 km/h 74 % 0 mm
00:14 16.6 °C 12.1 °C 1013.4 hPa South 7.4 km/h 7.4 km/h 75 % 0 mm
00:19 16.4 °C 12.2 °C 1013.4 hPa South 8 km/h 4.7 km/h 76 % 0 mm
00:24 16.3 °C 12.1 °C 1013.4 hPa South 6.4 km/h 3.1 km/h 76 % 0 mm
00:29 16.2 °C 12.1 °C 1013.4 hPa South 8 km/h 5.6 km/h 77 % 0 mm
00:34 16.1 °C 12.2 °C 1013.4 hPa South 8 km/h 6.8 km/h 78 % 0 mm
00:39 15.9 °C 12.1 °C 1013.4 hPa South 5.6 km/h 2.4 km/h 78 % 0 mm
00:44 15.8 °C 12 °C 1013.4 hPa South 5.6 km/h 0.2 km/h 78 % 0 mm
00:49 15.7 °C 12.1 °C 1013.1 hPa South 1.9 km/h 0.8 km/h 79 % 0 mm
00:54 15.7 °C 12.1 °C 1013.1 hPa Calm     79 % 0 mm
00:59 15.5 °C 11.9 °C 1013.1 hPa South 1.6 km/h 1.1 km/h 79 % 0 mm
01:04 15.3 °C 11.9 °C 1012.8 hPa Calm     80 % 0 mm
01:09 15.2 °C 11.8 °C 1012.8 hPa South 3.2 km/h 0.6 km/h 80 % 0 mm
01:14 15.2 °C 11.9 °C 1012.8 hPa South 3.2 km/h 2.3 km/h 81 % 0 mm
01:19 15.1 °C 12 °C 1012.4 hPa South 1.9 km/h   82 % 0 mm
01:24 15 °C 11.9 °C 1012.4 hPa South 1.9 km/h 1.1 km/h 82 % 0 mm
01:29 14.9 °C 12 °C 1012.4 hPa South 6.4 km/h 4.7 km/h 83 % 0 mm
01:34 14.9 °C 12.1 °C 1012.4 hPa South 1.9 km/h   83 % 0 mm
01:39 14.9 °C 12.2 °C 1012.4 hPa South 5.6 km/h 2.1 km/h 84 % 0 mm
01:44 14.9 °C 12.3 °C 1012.1 hPa Calm     84 % 0 mm
01:49 14.9 °C 12.2 °C 1012.1 hPa South 7.4 km/h 4.8 km/h 84 % 0 mm
01:54 14.9 °C 12.4 °C 1012.1 hPa South 5.6 km/h 3.2 km/h 85 % 0 mm
01:59 14.9 °C 12.4 °C 1012.1 hPa Calm     85 % 0 mm
02:04 14.8 °C 12.3 °C 1012.1 hPa South 1.9 km/h 0.2 km/h 85 % 0 mm
02:09 14.8 °C 12.3 °C 1012.1 hPa Calm     85 % 0 mm
02:14 14.6 °C 12.1 °C 1012.1 hPa Calm     85 % 0 mm
02:19 14.5 °C 12 °C 1012.1 hPa Calm     85 % 0 mm
02:24 14.4 °C 12.1 °C 1011.7 hPa Calm     86 % 0 mm
02:29 14.2 °C 11.7 °C 1011.7 hPa Calm     85 % 0 mm
02:34 14 °C 11.7 °C 1011.7 hPa Calm     86 % 0 mm
02:39 13.8 °C 11.5 °C 1011.7 hPa Calm     86 % 0 mm
02:44 13.7 °C 11.4 °C 1011.4 hPa Calm     86 % 0 mm
02:49 13.5 °C 11.4 °C 1011.4 hPa Calm     87 % 0 mm
02:54 13.3 °C 11.2 °C 1011.4 hPa Calm     87 % 0 mm
02:59 13.2 °C 11.1 °C 1011.4 hPa Calm     87 % 0 mm
03:04 13.1 °C 10.9 °C 1011.1 hPa Calm     87 % 0 mm
03:09 12.9 °C 10.8 °C 1011.1 hPa Calm     87 % 0 mm
03:14 12.7 °C 10.8 °C 1011.1 hPa Calm     88 % 0 mm
03:19 12.9 °C 11.1 °C 1011.1 hPa South 3.7 km/h   89 % 0 mm
03:24 12.9 °C 11.1 °C 1011.1 hPa Calm     89 % 0 mm
03:29 12.7 °C 10.8 °C 1011.1 hPa Calm     88 % 0 mm
03:34 12.6 °C 10.8 °C 1011.1 hPa Calm     89 % 0 mm
03:39 12.4 °C 10.7 °C 1011.1 hPa Calm     89 % 0 mm
03:44 12.4 °C 10.6 °C 1011.1 hPa Calm     89 % 0 mm
03:49 12.3 °C 10.5 °C 1011.1 hPa Calm     89 % 0 mm
03:54 12.2 °C 10.6 °C 1011.1 hPa Calm     90 % 0 mm
03:59 12.2 °C 10.6 °C 1010.7 hPa Calm     90 % 0 mm
04:04 12.1 °C 10.5 °C 1010.7 hPa Calm     90 % 0 mm
04:09 12 °C 10.4 °C 1010.7 hPa Calm     90 % 0 mm
04:14 11.9 °C 10.3 °C 1010.7 hPa Calm     90 % 0 mm
04:19 11.9 °C 10.3 °C 1010.7 hPa Calm     90 % 0 mm
04:24 11.8 °C 10.2 °C 1010.7 hPa Calm     90 % 0 mm
04:29 11.8 °C 10.2 °C 1010.7 hPa Calm     90 % 0 mm
04:34 11.8 °C 10.4 °C 1010.7 hPa Calm     91 % 0 mm
04:39 11.8 °C 10.4 °C 1010.7 hPa Calm     91 % 0 mm
04:44 11.9 °C 10.4 °C 1010.7 hPa Calm     91 % 0 mm
04:49 11.8 °C 10.4 °C 1010.7 hPa Calm     91 % 0 mm
04:54 11.8 °C 10.3 °C 1010.7 hPa Calm     91 % 0 mm
04:59 11.8 °C 10.3 °C 1010.7 hPa Calm     91 % 0 mm
05:04 11.8 °C 10.4 °C 1010.7 hPa Calm     91 % 0 mm
05:09 11.8 °C 10.4 °C 1010.7 hPa Calm     91 % 0 mm
05:14 11.8 °C 10.4 °C 1010.7 hPa Calm     91 % 0 mm
05:19 11.9 °C 10.6 °C 1010.7 hPa Calm     92 % 0 mm
05:24 12 °C 10.7 °C 1010.7 hPa Calm     92 % 0 mm
05:29 12.1 °C 10.8 °C 1010.7 hPa Calm     92 % 0 mm
05:34 12.1 °C 10.8 °C 1010.7 hPa Calm     92 % 0 mm
05:39 12.2 °C 10.9 °C 1010.7 hPa Calm     92 % 0 mm
05:44 12.2 °C 10.9 °C 1010.7 hPa Calm     92 % 0 mm
05:49 12.3 °C 11.1 °C 1010.7 hPa Calm     92 % 0 mm
05:54 12.4 °C 11.1 °C 1010.7 hPa Calm     92 % 0 mm
05:59 12.4 °C 11.2 °C 1010.7 hPa Calm     92 % 0 mm
06:04 12.4 °C 11.2 °C 1010.7 hPa Calm     92 % 0 mm
06:09 12.5 °C 11.2 °C 1010.7 hPa Calm     92 % 0 mm
06:14 12.4 °C 11.2 °C 1010.7 hPa Calm     92 % 0 mm
06:19 12.4 °C 11.2 °C 1010.7 hPa Calm     92 % 0 mm
06:24 12.4 °C 11.2 °C 1010.7 hPa Calm     92 % 0 mm
06:29 12.5 °C 11.2 °C 1010.7 hPa Calm     92 % 0 mm
06:34 12.6 °C 11.3 °C 1010.7 hPa Calm     92 % 0 mm
06:39 12.6 °C 11.3 °C 1010.7 hPa Calm     92 % 0 mm
06:44 12.6 °C 11.3 °C 1011.1 hPa Calm     92 % 0 mm
06:49 12.7 °C 11.4 °C 1011.1 hPa Calm     92 % 0 mm
06:54 12.7 °C 11.4 °C 1011.1 hPa Calm     92 % 0 mm
06:59 12.7 °C 11.4 °C 1011.1 hPa Calm     92 % 0 mm
07:04 12.7 °C 11.4 °C 1011.1 hPa Calm     92 % 0 mm
07:09 12.7 °C 11.4 °C 1011.1 hPa Calm     92 % 0 mm
07:14 12.6 °C 11.3 °C 1011.1 hPa Calm     92 % 0 mm
07:19 12.6 °C 11.3 °C 1011.1 hPa Calm     92 % 0 mm
07:24 12.7 °C 11.4 °C 1011.1 hPa Calm     92 % 0 mm
07:29 12.7 °C 11.4 °C 1011.1 hPa Calm     92 % 0 mm
07:34 12.8 °C 11.5 °C 1011.1 hPa Calm     92 % 0 mm
07:39 12.8 °C 11.6 °C 1011.1 hPa Calm     92 % 0 mm
07:44 12.9 °C 11.6 °C 1011.1 hPa Calm     92 % 0 mm
07:49 13 °C 11.7 °C 1011.1 hPa Calm     92 % 0 mm
07:54 13.2 °C 12.1 °C 1011.4 hPa Calm     93 % 0 mm
07:59 13.3 °C 12.2 °C 1011.1 hPa Calm     93 % 0 mm
08:04 13.4 °C 12.3 °C 1011.4 hPa Calm     93 % 0 mm
08:09 13.6 °C 12.4 °C 1011.4 hPa South 1.6 km/h 1 km/h 93 % 0 mm
08:14 13.8 °C 12.7 °C 1011.4 hPa South 3.7 km/h 2.6 km/h 93 % 0 mm
08:19 13.9 °C 12.7 °C 1011.4 hPa North 1.9 km/h   92 % 0 mm
08:24 14.2 °C 12.9 °C 1011.4 hPa Calm     92 % 0 mm
08:29 14.4 °C 13.1 °C 1011.4 hPa Calm     92 % 0 mm
08:34 14.6 °C 13.3 °C 1011.4 hPa South 1.9 km/h   92 % 0 mm
08:39 14.8 °C 13.3 °C 1011.4 hPa Calm     91 % 0 mm
08:44 15 °C 13.4 °C 1011.4 hPa Calm     90 % 0 mm
08:49 15.3 °C 13.5 °C 1011.4 hPa Calm     89 % 0 mm
08:54 15.8 °C 13.9 °C 1011.4 hPa Calm   0.3 km/h 89 % 0 mm
08:59 16.6 °C 14 °C 1011.4 hPa SE 1.9 km/h 0.2 km/h 85 % 0 mm
09:04 17.4 °C 13.7 °C 1011.7 hPa Calm     79 % 0 mm
09:09 18.3 °C 12.6 °C 1011.7 hPa SE 5.6 km/h 2.9 km/h 69 % 0 mm
09:14 19 °C 12.1 °C 1011.7 hPa SE 3.7 km/h   64 % 0 mm
09:19 19.7 °C 11.7 °C 1011.7 hPa SE 3.7 km/h 1.6 km/h 60 % 0 mm
09:24 20.5 °C 11.7 °C 1011.7 hPa SE 5.6 km/h 0.6 km/h 57 % 0 mm
09:29 21.1 °C 11.7 °C 1011.7 hPa SE 3.7 km/h 1.6 km/h 55 % 0 mm
09:34 21.6 °C 12.1 °C 1011.7 hPa Calm     55 % 0 mm
09:39 22.2 °C 12.1 °C 1011.7 hPa Calm     53 % 0 mm
09:44 22.9 °C 11 °C 1011.7 hPa SE 3.7 km/h 2.7 km/h 47 % 0 mm
09:49 23.3 °C 11 °C 1011.7 hPa SE 3.7 km/h 0.3 km/h 46 % 0 mm
09:54 23.7 °C 10.4 °C 1011.7 hPa SE 5.6 km/h 2.7 km/h 43 % 0 mm
09:59 24.2 °C 10.5 °C 1011.7 hPa SE 3.7 km/h 0.6 km/h 42 % 0 mm
10:04 24.7 °C 10.6 °C 1011.7 hPa SE 1.6 km/h 0.3 km/h 41 % 0 mm
10:09 24.9 °C 10.1 °C 1011.7 hPa SE 3.7 km/h 1.3 km/h 39 % 0 mm
10:14 25.3 °C 10.7 °C 1011.7 hPa SE 1.9 km/h   40 % 0 mm
10:19 25.4 °C 9.2 °C 1011.7 hPa SE 9.7 km/h 4.3 km/h 36 % 0 mm
10:24 25.2 °C 10.2 °C 1011.7 hPa SE 14.8 km/h 11.1 km/h 39 % 0 mm
10:29 24.9 °C 10.1 °C 1011.7 hPa SSE 12.9 km/h 12.7 km/h 39 % 0 mm
10:34 24.8 °C 9.9 °C 1011.7 hPa SSE 14.5 km/h 13.5 km/h 39 % 0 mm
10:39 24.7 °C 9.8 °C 1011.7 hPa South 16.7 km/h 11.1 km/h 39 % 0 mm
10:44 24.8 °C 9.9 °C 1011.7 hPa South 11.3 km/h 7.7 km/h 39 % 0 mm
10:49 24.8 °C 10.3 °C 1011.7 hPa South 16.7 km/h 10.9 km/h 40 % 0 mm
10:54 24.8 °C 10.3 °C 1011.7 hPa South 13 km/h 10 km/h 40 % 0 mm
10:59 24.9 °C 10.7 °C 1011.7 hPa South 7.4 km/h 5.3 km/h 41 % 0 mm
11:04 24.9 °C 9.7 °C 1011.7 hPa South 13 km/h 9.5 km/h 38 % 0 mm
11:09 25 °C 9.3 °C 1011.7 hPa South 7.4 km/h 1.3 km/h 37 % 0 mm
11:14 25.3 °C 10.7 °C 1011.7 hPa South 9.3 km/h 4.7 km/h 40 % 0 mm
11:19 25.5 °C 10.1 °C 1011.7 hPa South 8 km/h 7.4 km/h 38 % 0 mm
11:24 26.3 °C 10.8 °C 1011.7 hPa South 11.1 km/h 9.7 km/h 38 % 0 mm
11:29 26.1 °C 10.2 °C 1011.7 hPa South 16.7 km/h 11.6 km/h 37 % 0 mm
11:34 25.7 °C 10.7 °C 1011.7 hPa South 13 km/h 9.5 km/h 39 % 0 mm
11:39 25.9 °C 10.5 °C 1011.7 hPa South 9.3 km/h 7.1 km/h 38 % 0 mm
11:44 26.4 °C 10.6 °C 1011.7 hPa South 9.3 km/h 1.9 km/h 37 % 0 mm
11:49 26.3 °C 9.2 °C 1011.7 hPa SW 11.1 km/h 4.8 km/h 34 % 0 mm
11:54 26.3 °C 8.3 °C 1011.7 hPa SW 1.9 km/h 1.1 km/h 32 % 0 mm
11:59 26.6 °C 8.6 °C 1011.7 hPa SW 12.9 km/h 11.1 km/h 32 % 0 mm
12:04 26.6 °C 8.6 °C 1011.4 hPa West 16.7 km/h 6.9 km/h 32 % 0 mm
12:09 26.7 °C 9.1 °C 1011.4 hPa WSW 16.7 km/h 12.2 km/h 33 % 0 mm
12:14 26.7 °C 8.7 °C 1011.4 hPa WSW 14.5 km/h 9.5 km/h 32 % 0 mm
12:19 26.6 °C 8.5 °C 1011.4 hPa WSW 11.1 km/h 5.5 km/h 32 % 0 mm
12:24 26.9 °C 9.3 °C 1011.4 hPa WSW 22.2 km/h 10.5 km/h 33 % 0 mm
12:29 26.8 °C 8.7 °C 1011.1 hPa SW 11.1 km/h 9 km/h 32 % 0 mm
12:34 26.5 °C 9.3 °C 1011.1 hPa SW 11.3 km/h 7.2 km/h 34 % 0 mm
12:39 26.5 °C 9.3 °C 1011.1 hPa SSW 14.8 km/h 10.1 km/h 34 % 0 mm
12:44 26.6 °C 8.9 °C 1011.1 hPa SSW 12.9 km/h 10.8 km/h 33 % 0 mm
12:49 26.8 °C 8.7 °C 1011.1 hPa SSW 6.4 km/h 5 km/h 32 % 0 mm
12:54 27.4 °C 8.8 °C 1010.7 hPa SW 9.7 km/h 7.6 km/h 31 % 0 mm
12:59 27.6 °C 9.4 °C 1010.7 hPa SW 7.4 km/h 6 km/h 32 % 0 mm
13:04 27.9 °C 9.2 °C 1010.4 hPa SW 13 km/h 6.4 km/h 31 % 0 mm
13:09 28 °C 9.3 °C 1010.4 hPa SW 7.4 km/h 4.2 km/h 31 % 0 mm
13:14 28.6 °C 9.3 °C 1010.4 hPa SW 9.3 km/h 6.1 km/h 30 % 0 mm
13:19 28.7 °C 9.4 °C 1010.4 hPa WSW 6.4 km/h 5 km/h 30 % 0 mm
13:24 28.3 °C 9.1 °C 1010 hPa West 14.8 km/h 9.5 km/h 30 % 0 mm
13:29 28.1 °C 7.9 °C 1010 hPa West 5.6 km/h 0.6 km/h 28 % 0 mm
13:34 27.9 °C 8.8 °C 1010 hPa West 3.7 km/h 1.8 km/h 30 % 0 mm
13:39 27.9 °C 8.2 °C 1010 hPa West 13 km/h 9.5 km/h 29 % 0 mm
13:44 27.7 °C 8.5 °C 1010 hPa West 9.3 km/h 2.3 km/h 30 % 0 mm
13:49 28.1 °C 8.3 °C 1009.7 hPa West 9.7 km/h 6.3 km/h 29 % 0 mm
13:54 28.2 °C 8.4 °C 1009.7 hPa West 5.6 km/h 6 km/h 29 % 0 mm
13:59 27.9 °C 8.7 °C 1009.7 hPa West 5.6 km/h 0.6 km/h 30 % 0 mm
14:04 28.2 °C 9 °C 1009.7 hPa West 6.4 km/h 1.6 km/h 30 % 0 mm
14:09 28.3 °C 8.6 °C 1009.4 hPa West 5.6 km/h 1.3 km/h 29 % 0 mm
14:14 28.7 °C 9.4 °C 1009.4 hPa West 5.6 km/h 3.9 km/h 30 % 0 mm
14:19 28.7 °C 8.9 °C 1009.4 hPa West 5.6 km/h 5 km/h 29 % 0 mm
14:24 28.8 °C 8.5 °C 1009 hPa West 5.6 km/h 3.1 km/h 28 % 0 mm
14:29 28.8 °C 8.4 °C 1009 hPa West 6.4 km/h 4.2 km/h 28 % 0 mm
14:34 28.9 °C 9.1 °C 1009 hPa West 5.6 km/h 2.1 km/h 29 % 0 mm
14:39 29.2 °C 8.8 °C 1009 hPa West 5.6 km/h 2.7 km/h 28 % 0 mm
14:44 29.4 °C 9 °C 1008.7 hPa West 5.6 km/h 1.4 km/h 28 % 0 mm
14:49 29.5 °C 9.1 °C 1008.7 hPa West 11.1 km/h 7.2 km/h 28 % 0 mm
14:54 29.4 °C 8.5 °C 1008.7 hPa West 9.3 km/h 4.2 km/h 27 % 0 mm
14:59 29.6 °C 8.6 °C 1008.4 hPa West 7.4 km/h 5.3 km/h 27 % 0 mm
15:04 29.6 °C 8.6 °C 1008.4 hPa WSW 7.4 km/h 5.5 km/h 27 % 0 mm
15:09 30.1 °C 9.1 °C 1008.4 hPa WSW 9.3 km/h 5.6 km/h 27 % 0 mm
15:14 30.4 °C 8.2 °C 1008.4 hPa WNW 14.8 km/h 12.1 km/h 25 % 0 mm
15:19 30.4 °C 8.2 °C 1008.4 hPa NW 18.5 km/h 10.3 km/h 25 % 0 mm
15:24 30.1 °C 7.9 °C 1008 hPa WNW 14.8 km/h 5.1 km/h 25 % 0 mm
15:29 29.8 °C 8.2 °C 1008 hPa WNW 18.5 km/h 12.6 km/h 26 % 0 mm
15:33 29.8 °C 8.8 °C 1008 hPa WNW 14.8 km/h 9 km/h 27 % 0 mm
16:14 28.9 °C 8.1 °C 1007.7 hPa WNW 14.8 km/h 6.9 km/h 27 % 0 mm
16:19 28.9 °C 8.1 °C 1007.3 hPa NW 11.1 km/h 5.8 km/h 27 % 0 mm
16:24 29 °C 8.7 °C 1007.3 hPa NW 14.8 km/h 8 km/h 28 % 0 mm
16:29 29 °C 8.1 °C 1007.3 hPa NW 12.9 km/h 9.2 km/h 27 % 0 mm
16:34 28.8 °C 8.4 °C 1007.3 hPa NNW 13 km/h 9.2 km/h 28 % 0 mm
16:39 28.7 °C 8.3 °C 1007.3 hPa NW 5.6 km/h 6 km/h 28 % 0 mm
16:44 28.7 °C 8.3 °C 1007.3 hPa NW 11.1 km/h 5.5 km/h 28 % 0 mm
16:49 28.5 °C 8.2 °C 1007.3 hPa NW 18.5 km/h 12.6 km/h 28 % 0 mm
16:54 28.4 °C 8.1 °C 1007.3 hPa NW 9.7 km/h 6.3 km/h 28 % 0 mm
16:59 28.3 °C 8.6 °C 1007 hPa NW 7.4 km/h 3.5 km/h 29 % 0 mm
17:04 28.6 °C 8.3 °C 1007.3 hPa NW 9.3 km/h 5.8 km/h 28 % 0 mm
17:09 28.8 °C 8.4 °C 1007 hPa NW 9.7 km/h 9.3 km/h 28 % 0 mm
17:14 28.8 °C 8.5 °C 1007 hPa NW 13 km/h 9.5 km/h 28 % 0 mm
17:19 29.3 °C 8.4 °C 1007 hPa NW 11.1 km/h 9.5 km/h 27 % 0 mm
17:24 29.8 °C 7.6 °C 1007 hPa NW 14.8 km/h 10.9 km/h 25 % 0 mm
17:29 29.4 °C 7.3 °C 1007 hPa NW 13 km/h 7.7 km/h 25 % 0 mm
17:34 29.2 °C 7.7 °C 1007 hPa NW 14.8 km/h 11.3 km/h 26 % 0 mm
17:39 29.3 °C 8.4 °C 1007 hPa NW 13 km/h 9.5 km/h 27 % 0 mm
17:44 29.4 °C 8.4 °C 1007 hPa NW 14.8 km/h 7.9 km/h 27 % 0 mm
17:49 29.2 °C 8.2 °C 1007 hPa WNW 9.3 km/h 3.9 km/h 27 % 0 mm
17:54 29.4 °C 8.5 °C 1006.7 hPa WNW 11.1 km/h 6.4 km/h 27 % 0 mm
17:59 29.8 °C 8.8 °C 1006.7 hPa WNW 9.3 km/h 3.2 km/h 27 % 0 mm
18:04 29.9 °C 8.3 °C 1006.7 hPa WNW 22.2 km/h 12.7 km/h 26 % 0 mm
18:09 29.8 °C 8.2 °C 1006.7 hPa North 24.1 km/h 9.8 km/h 26 % 0 mm
18:14 29.6 °C 8 °C 1006.7 hPa WNW 24.1 km/h 10.8 km/h 26 % 0 mm
18:19 29.4 °C 7.9 °C 1006.7 hPa North 11.1 km/h 5.3 km/h 26 % 0 mm
18:24 29.3 °C 7.8 °C 1006.7 hPa WNW 16.7 km/h 10.5 km/h 26 % 0 mm
18:29 29 °C 8.1 °C 1006.7 hPa NW 16.7 km/h 13.2 km/h 27 % 0 mm
18:34 28.8 °C 8.5 °C 1006.7 hPa NW 5.6 km/h 4.8 km/h 28 % 0 mm
18:39 28.8 °C 7.9 °C 1006.7 hPa NW 9.3 km/h 6.8 km/h 27 % 0 mm
18:44 28.9 °C 8 °C 1006.7 hPa NW 7.4 km/h 6.6 km/h 27 % 0 mm
18:49 28.9 °C 8.6 °C 1006.3 hPa NW 1.9 km/h 2.3 km/h 28 % 0 mm
18:54 29.1 °C 8.7 °C 1006.3 hPa NW 7.4 km/h 6.1 km/h 28 % 0 mm
18:59 29.4 °C 8.4 °C 1006.7 hPa NW 9.3 km/h 7.2 km/h 27 % 0 mm
19:04 29.6 °C 8.1 °C 1006.3 hPa NW 9.3 km/h 6.1 km/h 26 % 0 mm
19:09 29.7 °C 8.1 °C 1006.3 hPa NW 9.7 km/h 4.3 km/h 26 % 0 mm
19:14 29.8 °C 8.8 °C 1006.3 hPa NW 5.6 km/h 4 km/h 27 % 0 mm
19:19 30.1 °C 8.4 °C 1006.3 hPa NW 4.8 km/h 2.3 km/h 26 % 0 mm
19:24 29.9 °C 8.3 °C 1006.3 hPa NW 5.6 km/h 3.9 km/h 26 % 0 mm
19:29 29.6 °C 8 °C 1006 hPa NW 5.6 km/h 1.8 km/h 26 % 0 mm
19:34 29.4 °C 9 °C 1006 hPa NW 5.6 km/h 1.6 km/h 28 % 0 mm
19:39 29.1 °C 8.7 °C 1006 hPa Calm     28 % 0 mm
19:44 29 °C 8.7 °C 1006 hPa NW 5.6 km/h 4.2 km/h 28 % 0 mm
19:49 28.9 °C 8.6 °C 1006 hPa NW 5.6 km/h 1.9 km/h 28 % 0 mm
19:54 28.7 °C 8.4 °C 1006 hPa NW 5.6 km/h 2.7 km/h 28 % 0 mm
19:59 28.6 °C 8.8 °C 1006 hPa NW 1.9 km/h   29 % 0 mm
20:04 28.4 °C 8.6 °C 1006 hPa Calm     29 % 0 mm
20:09 28.2 °C 8.4 °C 1006 hPa Calm     29 % 0 mm
20:14 27.8 °C 9.2 °C 1006 hPa Calm     31 % 0 mm
20:19 27.4 °C 9.7 °C 1006 hPa NW 1.9 km/h   33 % 0 mm
20:24 26.7 °C 9.9 °C 1006 hPa Calm     35 % 0 mm
20:29 26.2 °C 9.9 °C 1006.3 hPa Calm     36 % 0 mm
20:34 25.8 °C 10.1 °C 1006 hPa Calm     37 % 0 mm
Ararat Weather
Compliments of Weather Underground - 2.25 mb
Click here to send mail.


ABOUT

Live weather data from Ararat, Victoria, Australia, 3377
Data uploaded from Cumulus every 5 minutes to Weather Underground.
This site then downloads the raw data for formatting and display.
Metric and imperial data can be displayed. Graphs and historical data available.
Includes Sun and Moon times and rain image live from BOM.

Check out Ararat Weather on Facebook, Twitter and Google +

Help support ongoing costs by checking out the ads





Follow @AraratWeather